Regional Weather Roundup
Issued by NWS Columbia, SC

Home | Current Version | Previous Version | Text Only | Print | Product List | Glossary On
Versions: 1 2 3 4 5 6 7 8 9 10 11 12 13 14 15 16 17 18 19 20 21 22 23 24 25 26 27 28 29 30 31 32 33 34 35 36 37 38 39 40 41 42 43 44 45 46 47 48 49 50
000
ASUS42 KCAE 282210
RWRCAE
REGIONAL WEATHER ROUNDUP
NATIONAL WEATHER SERVICE COLUMBIA SC
500 PM EST WED JAN 28 2015

NOTE: "FAIR" INDICATES FEW OR NO CLOUDS BELOW 12,000 FEET WITH NO
SIGNIFICANT WEATHER AND/OR OBSTRUCTIONS TO VISIBILITY.

NOT ALL STATIONS ARE QUALITY CONTROLLED BY THE NATIONAL
WEATHER SERVICE. USE DATA WITH CAUTION...ESPECIALLY
DEWPOINT OBSERVATIONS.

SCZ001>056-GAZ040-063>065-077-282300-
...UPSTATE SOUTH CAROLINA...

CITY           SKY/WX    TMP DP  RH WIND       PRES   REMARKS
ANDERSON       CLEAR     51  17  26 W5        30.24R
LIBERTY        CLEAR     52  27  38 MISG      30.22R
SPARTANBURG    CLEAR     52  10  19 CALM      30.23R
CLEMSON        CLEAR     52  15  23 S6        30.24R
GREENVILLE     CLEAR     50  10  20 CALM      30.23R
GREENWOOD      CLEAR     52  13  21 CALM      30.25S
GREER          CLEAR     49  12  22 CALM      30.22R
ROCK HILL      CLEAR     48  17  29 CALM      30.25R
CHESTER        CLEAR     48  14  25 CALM      30.25S
LAURENS        CLEAR     50  27  40 NE3       30.24R


...CENTRAL SOUTH CAROLINA...

CITY           SKY/WX    TMP DP  RH WIND       PRES   REMARKS
COLUMBIA APT   CLEAR     50  20  30 NW5       30.26R
COLUMBIA OWENS CLEAR     51  18  27 CALM      30.27R
DARLINGTON     CLEAR     46  23  39 NW8       30.27R
FLORENCE       CLEAR     47  20  34 N10       30.26R
MCENTIRE ANGB  CLEAR     49  19  31 N5        30.26R
ORANGEBURG     CLEAR     50  18  28 N3        30.26R
SUMTER SHAW    CLEAR     48  20  32 N6        30.24R
NEWBERRY       CLEAR     48  19  32 CALM      30.28R
AIKEN          FAIR      50  21  32 N5        30.28R
BARNWELL       FAIR      52  19  28 N6        30.27R
MANNING        FAIR      50  21  32 NW7       30.26R
CAMDEN         FAIR      48  19  32 CALM      30.27R
LANCASTER      CLEAR     48  16  27 NW7       30.26R
WINNSBORO      CLEAR     46  21  36 CALM      30.25R


...EASTERN AND COASTAL SOUTH CAROLINA...

CITY           SKY/WX    TMP DP  RH WIND       PRES   REMARKS
MYRTLE BEACH   CLEAR     46  16  29 NW14      30.26R
N MYRTLE BCH   CLEAR     46  15  28 N10       30.24R
CONWAY         FAIR      45  19  36 N3        30.26R
MARION         FAIR      45  19  36 N7        30.26R
HARTSVILLE     FAIR      48  28  46 NW3       30.26R
FLORENCE       CLEAR     47  20  34 N10       30.26R
DARLINGTON     CLEAR     46  23  39 NW8       30.27R
CHARLESTON APT CLEAR     47  21  35 NW7       30.27R
MOUNT PLEASANT FAIR     N/A N/A N/A W8        30.26R
WALTERBORO     CLEAR     50  14  23 NW5       30.28R
BEAUFORT       CLEAR     49  22  34 N6        30.27R


...EASTERN GEORGIA...

CITY           SKY/WX    TMP DP  RH WIND       PRES   REMARKS
AUGUSTA BUSH F CLEAR     53  15  22 N6        30.26R
THOMSON        CLEAR     54  25  33 CALM      30.29R
WASHINGTON     FAIR      55  32  41 CALM      30.24R
CLAXTON        FAIR      52  28  40 N7        30.26S
SYLVANIA       CLEAR     51  24  34 N5        30.27R
STATESBORO     CLEAR     51  23  33 NW6       30.26R
SAVANNAH       PTCLDY    52  17  25 NW7       30.27R


...SOUTHERN NORTH CAROLINA...

CITY           SKY/WX    TMP DP  RH WIND       PRES   REMARKS
CHARLOTTE      CLEAR     47  14  26 NW6       30.25R
MONROE         CLEAR     47  16  29 NW7       30.24R
WADESBORO      CLEAR     47  16  29 NW3       30.26R
ROCKINGHAM       N/A     45  19  35 NW3       30.25R
RUTHERFORDTON  CLEAR     49  13  23 CALM      30.22S
ASHEVILLE      CLEAR     45  14  28 N9        30.20R

$$


USA.gov is the U.S. government's official web portal to all federal, state and local government web resources and services.